869  
ASHW40 PHFO 012012  
RWRHI  
 
WEATHER ROUNDUP FOR HAWAII  
NATIONAL WEATHER SERVICE HONOLULU HI  
1000 AM HST SAT AUG 01 2015  
 
THIS IS AN AUTOMATED REPORT THAT HAS NOT BEEN QUALITY CONTROLLED.  
 
NOTE..."FAIR" INDICATES FEW OR NO CLOUDS BELOW 12,000 FEET WITH NO  
SIGNIFICANT WEATHER AND/OR S TO VISIBILITY
.  
 
* - THESE SITES REPORT LIMITED FIELDS  
 
HIZ001>004-012100-  
KAUAI-NIIHAU-  
 
CITY SKY/WX TMP DP RH WIND PRES REMARKS
 
LIHUE APT PTSUNNY 84 72 65 NE16 30.03R  
PORT ALLEN* NOT AVBL  
POIPU* NOT AVBL  
PRINCEVILLE* NOT AVBL  
KOKOLE POINT* NOT AVBL  
MOLOAA DAIRY* NOT AVBL  
WAIMEA HTS* NOT AVBL  
PUU OPAE* NOT AVBL  
PUU LUA* NOT AVBL  
MAKAHA RIDGE* NOT AVBL  

 
 
HIZ005>011-012100-  
OAHU-  
 
CITY SKY/WX TMP DP RH WIND PRES REMARKS
 
HONOLULU FAIR 87 69 54 E16G22 29.98S HX 91  
KALAELOA FAIR 86 67 52 E8G18 29.99S  
KANEOHE MCB FAIR 82 72 71 NE10G20 29.98S  
WHEELER FIELD NOT AVBL  
BELLOWS* NOT AVBL  
KAHUKU* NOT AVBL  
WHEELER* NOT AVBL  
WAIANAE HARBOR NOT AVBL  
DILLINGHAM* NOT AVBL  
KAHUKU TRN* NOT AVBL  
KAWAILOA* NOT AVBL  
KII* NOT AVBL  
MAKUA RANGE* NOT AVBL  
OAHU FOREST NW NOT AVBL  
SCHOFIELD BRK* NOT AVBL  
SCHOFIELD S* NOT AVBL  
WAIANAE VLY* NOT AVBL  
KUAOKALA* NOT AVBL  
HONOULIUULI* NOT AVBL  
MOKUOLOE IS* NOT AVBL  
PALEHUA* NOT AVBL  
WAIAWA PHB* NOT AVBL  

 
 
HIZ012>013-012100-  
MOLOKAI-  
 
CITY SKY/WX TMP DP RH WIND PRES REMARKS
 
MOLOKAI AIRPT PTSUNNY 81 70 69 NE15G33 30.00S  
KALAUPAPA NOT AVBL  
MAKAPULAPAI* NOT AVBL  
MOLOKAI 1* NOT AVBL  
PUU ALII* NOT AVBL  

 
 
HIZ016-012100-  
KAHOOLAWE-  
 
CITY SKY/WX TMP DP RH WIND PRES REMARKS
 
KAHOOLAWE* NOT AVBL  
HAKIOAWA* NOT AVBL  
HONOKANAIA* NOT AVBL  
KANELOA* NOT AVBL  
KEALIALALO* NOT AVBL  
LUA MAKIKA* NOT AVBL  

 
 
HIZ014>015-012100-  
LANAI-  
 
CITY SKY/WX TMP DP RH WIND PRES REMARKS
 
LANAI CITY CLOUDY 81 69 67 NE12G18 30.02S  
LANAI 1* NOT AVBL  

 
 
HIZ017>028-012100-  
MAUI-  
 
CITY SKY/WX TMP DP RH WIND PRES REMARKS
 
KAHULUI FAIR 86 70 58 NE22 29.98S HX 90  
KAPALUA-W MAUI PTSUNNY 82 70 65 NE14G26 29.98  
HANA AIRPORT MOSUNNY 82 72 69 NE9 30.02F  
HANA* NOT AVBL  
HALEAKALA SUMM N/A 57 23 26 SE21 N/A  
MAALAEA BAY* NOT AVBL  
HALEAKALA* NOT AVBL  
KAUPO GAP* NOT AVBL  
KULA 1* NOT AVBL  

 
 
HIZ023>026-012100-  
BIG ISLAND OF HAWAII COAST AND LOWER SLOPES-  
 
CITY SKY/WX TMP DP RH WIND PRES REMARKS
 
KAILUA KONA FAIR 86 71 60 NW8 29.91F HX 91  
HILO CLOUDY 78 72 81 N12 29.99R  
HONOKAA* NOT AVBL  
KAWAIHAE MWT* NOT AVBL  
KAWAIHAE* NOT AVBL  
SOUTH POINT* NOT AVBL  
UPOLU AIRPORT* NOT AVBL  
KAMUELA* MOCLDY 72 68 88 NE21 30.07S  
HAKALAU* NOT AVBL  
KALOKO-HONOKO* NOT AVBL  
PALI 2* NOT AVBL  
KEALAKOMO* NOT AVBL  
KAUPULEHU* NOT AVBL  
KAPAPALA* NOT AVBL  
LOWER KAHUKU* NOT AVBL  
PUHE CS* NOT AVBL  
PUHO CS* NOT AVBL  
PTA KEAMUKU* NOT AVBL  
WAIKOLOA* NOT AVBL  

 
 
HIZ027>028-012100-  
BIG ISLAND OF HAWAII INTERIOR AND SUMMMITS-  
 
CITY SKY/WX TMP DP RH WIND PRES REMARKS
 
BRADSHAW FIELD FAIR 77 39 25 SE16G28 30.26F  
MK VISITOR CEN N/A 0 0 100 MISG N/A  
MAUNA KEA* N/A 50 12 22 SE20 N/A  
MAUNA LOA* NOT AVBL  
MAUNA LOA 1* NOT AVBL  
PTA KIPUKA* NOT AVBL  
PTA RANGE 17* NOT AVBL  
PTA WEST* NOT AVBL  
NENE CABIN* NOT AVBL  
AHUMOA* NOT AVBL  
PTA PORTABLE* NOT AVBL  
PUU MALI* NOT AVBL  

 
 
HIC003-012100-  
NORTHWEST ISLANDS-  
 
CITY SKY/WX TMP DP RH WIND PRES REMARKS
 
MIDWAY ISLAND SUNNY 82 73 74 CALM 30.01S  
MIDWAY NOS* NOT AVBL  
FRENCH FRIGATE NOT AVBL  

 
 
PHZ110>124-180-012100-  
BUOY REPORTS  
 
STATION/POSITION TIME TEMP WIND PRES WAVE SWELL
 
AIR SEA DIR/SP/G HT/PER HT/DIR  
(UTC) (F) (DEG/KT/KT) (MB) (FT/S) (FT/D)  
BUOY 51001 NOT AVBL  
BUOY 51101 1950 80 80 90/ 14/ 16 1016.8R 5/ 6 3/110  
BUOY 51100 NOT AVBL  
BUOY 51002 1950 81 82 60/ 16/ 19 1012.1F 6/ 8 3/120  
BUOY 51003 1850 81 83 60/ 16/ 19 1013.5 6/ 9 5  
BUOY 51004 1950 81 81 60/ 16/ 21 1011.2F 8/ 9 7/ 90  
BARBERS PT BUOY NOT AVBL  
WAIMEA BAY BUOY 1904 81 N/A 4/ 7  
KAILUA BAY BUOY 1911 80 N/A 5/ 6 2/100  
LANAI BUOY NOT AVBL  
BARBERS PT 2 2003 82 N/A 4/14 2/170  
PAUWELA MAUI 1907 79 N/A 6/ 8 2/ 90  
HILO NOT AVBL  
KANEOHE BAY BUOY 1903 79 N/A 5/ 8  
HANALEI KAUAI 2001 81 N/A 5/ 7  
KAHULUI HARBOR 1900 80 81 30/ 13/ 17 1015.2S  
HONOLULU HARBOR 1900 81 81 40/ 3/ 4 1015.5R  
KILO NALU NOT AVBL  
HILO HARBOR 1900 76 78 30/ 12/ 13 1014.9R  
MOKUOLOE 1900 81 83 70/ 15/ 18 1015.9R  
NAWILIWILI 1900 81 83 60/ 13/ 18 1016.2R  
WHOTS BUOY NOT AVBL  
BUOY 51028 NOT AVBL  

 
   
.....................KEY.....................................
 
 
SKY/WX - SKY CONDITIONS/PRESENT WEATHER  
TMP - TEMPERATURE IN FAHRENHEIT  
DWPT - DEWPOINT IN FAHRENHEIT  
RH - RELATIVE HUMIDITY IN PERCENT  
WIND - DIRECTION AND SPEED /MPH FOR ISLANDS...KTS FOR BUOYS/  
PRES - MEAN SEA LEVEL PRESSURE IN INCHES OF HG  
VSB - VISIBILITY IN MILES  
HX - HEAT INDEX  
WCI - WIND CHILL INDEX  
VRB - VARIABLE WIND DIRECTION  
N/A - NOT AVAILABLE  
 
CLICK HERE TO GO TO PREVIOUS BULLETINS.

The Nexlab HI Page Main Text Page

The Nexlab HI Page Main Text Page